Estherville, IA

5:45 AM CDT on July 26, 2017 (GMT -0500)
Estherville Municipal

Weather History for KEST - July, 2013

Change the Weather History Date:

Monday, July 22, 2013

  Actual Average Record
Temperature  
Mean Temperature 76 °F 72 °F  
Max Temperature 90 °F 82 °F 95 °F (1960)
Min Temperature 62 °F 61 °F 48 °F (1985)
Degree Days  
Heating Degree Days 0 0  
Month to date heating degree days 0 0  
Since 1 June heating degree days 54 41  
Since 1 July heating degree days 0 0  
Cooling Degree Days 11 7  
Month to date cooling degree days 219 154  
Year to date cooling degree days 402 327  
Since 1 June cooling degree days 369 291  
Growing Degree Days 27 (Base 50)    
Moisture  
Dew Point 65 °F    
Average Humidity 74    
Maximum Humidity 100    
Minimum Humidity 47    
Precipitation  
Precipitation 0.00 in 0.13 in 2.75 in (2010)
Month to date precipitation T 2.92  
Sea Level Pressure  
Sea Level Pressure 29.76 in    
Wind  
Wind Speed 11 mph (SW)    
Max Wind Speed 20 mph    
Max Gust Speed 25 mph    
Visibility 7 miles    
Events Fog    
T = Trace of Precipitation, MM = Missing Value Source: NWS Daily Summary

Daily Weather History Graph

Daily Weather History Graph

Search for Another Location

Airport or City:

Trip Planner

Search our weather history database for the weather conditions in past years. The results will help you decide how hot, cold, wet, or windy it might be!

Date:

Astronomy

Jul. 22, 2013 Rise Set
Actual Time 5:58 AM CDT 8:51 PM CDT
Civil Twilight 5:25 AM CDT 9:25 PM CDT
Nautical Twilight 4:42 AM CDT 10:07 PM CDT
Astronomical Twilight 3:52 AM CDT 10:57 PM CDT
Moon 8:35 PM CDT (7/22) 5:58 AM CDT (7/22)
Length of Visible Light 15h 59m
Length of Day
14h 52m
Full, 100% of the Moon is Illuminated
Jul 22
Full
Jul 22
Full
Jul 29
Last Quarter
Aug 6
New
Aug 14
First Quarter

Hourly Weather History & Observations

Time (CDT) Temp. Heat Index Dew Point Humidity Pressure Visibility Wind Dir Wind Speed Gust Speed Precip Events Conditions
12:52 AM 70.0 °F - 64.9 °F 84% 29.79 in 10.0 mi SSE 8.1 mph - N/A   Clear
1:52 AM 69.1 °F - 64.9 °F 87% 29.77 in 10.0 mi South 10.4 mph - N/A   Clear
2:52 AM 66.9 °F - 64.0 °F 90% 29.78 in 9.0 mi South 6.9 mph - N/A   Clear
3:52 AM 66.0 °F - 64.0 °F 93% 29.76 in 7.0 mi South 6.9 mph - N/A   Clear
4:52 AM 64.9 °F - 63.0 °F 93% 29.75 in 5.0 mi South 6.9 mph - N/A   Clear
5:28 AM 64.4 °F - 62.6 °F 94% 29.77 in 4.0 mi South 9.2 mph - N/A   Partly Cloudy
5:42 AM 66.2 °F - 64.4 °F 94% 29.77 in 4.0 mi South 10.4 mph - N/A   Mostly Cloudy
5:52 AM 66.0 °F - 64.0 °F 93% 29.74 in 3.0 mi South 8.1 mph - N/A   Overcast
6:01 AM 66.2 °F - 64.4 °F 94% 29.76 in 1.8 mi South 8.1 mph - N/A   Overcast
6:11 AM 66.2 °F - 64.4 °F 94% 29.76 in 0.2 mi South 8.1 mph - N/A Fog Fog
6:52 AM 66.0 °F - 64.9 °F 96% 29.75 in 0.2 mi South 9.2 mph - N/A Fog Fog
7:52 AM 66.9 °F - 66.0 °F 97% 29.75 in 0.2 mi South 5.8 mph - N/A Fog Fog
8:31 AM 68.0 °F - 66.2 °F 94% 29.80 in 1.2 mi SW 5.8 mph - N/A   Overcast
8:42 AM 69.8 °F - 68.0 °F 94% 29.80 in 3.0 mi SSW 8.1 mph - N/A   Mostly Cloudy
8:52 AM 70.0 °F - 69.1 °F 97% 29.78 in 5.0 mi SW 9.2 mph - N/A   Scattered Clouds
9:52 AM 75.0 °F - 68.0 °F 79% 29.72 in 9.0 mi SSW 12.7 mph 17.3 mph N/A   Partly Cloudy
10:52 AM 75.0 °F - 68.0 °F 79% 29.70 in 10.0 mi SW 12.7 mph - N/A   Partly Cloudy
11:52 AM 84.0 °F 89.0 °F 71.1 °F 65% 29.70 in 10.0 mi SSW 8.1 mph - N/A   Clear
12:52 PM 90.0 °F 92.8 °F 66.9 °F 46% 29.71 in 10.0 mi WSW 11.5 mph 19.6 mph N/A   Clear
1:52 PM 88.0 °F 92.9 °F 70.0 °F 55% 29.72 in 10.0 mi West 16.1 mph 23.0 mph N/A   Partly Cloudy
2:52 PM 87.1 °F 92.0 °F 70.0 °F 57% 29.72 in 10.0 mi WNW 13.8 mph 19.6 mph N/A   Scattered Clouds
3:52 PM 84.9 °F 88.8 °F 69.1 °F 59% 29.73 in 10.0 mi NW 15.0 mph 20.7 mph N/A   Mostly Cloudy
4:52 PM 84.9 °F 87.6 °F 66.9 °F 55% 29.73 in 10.0 mi NNW 16.1 mph - N/A   Scattered Clouds
5:52 PM 82.9 °F 84.4 °F 64.0 °F 53% 29.73 in 10.0 mi NNW 12.7 mph 24.2 mph N/A   Partly Cloudy
6:52 PM 81.0 °F 82.5 °F 64.0 °F 56% 29.75 in 10.0 mi North 17.3 mph 25.3 mph N/A   Clear
7:52 PM 77.0 °F - 61.0 °F 58% 29.79 in 10.0 mi North 12.7 mph - N/A   Scattered Clouds
8:52 PM 73.9 °F - 60.1 °F 62% 29.81 in 10.0 mi North 15.0 mph - N/A   Overcast
9:52 PM 71.1 °F - 57.9 °F 63% 29.84 in 10.0 mi North 9.2 mph - N/A   Mostly Cloudy
10:52 PM 69.1 °F - 57.0 °F 65% 29.88 in 10.0 mi North 8.1 mph - N/A   Mostly Cloudy
11:52 PM 68.0 °F - 57.0 °F 68% 29.87 in 10.0 mi NNW 5.8 mph - N/A   Overcast